Tavèrnoles





Hora UTC 18:30
Temperatura 20.7 ºC
Humitat 59.0 %
Pressió 1023.4 hPa
Pluja 0.0 mm
Velocitat vent 0.0 km/h
Direcció vent S
Radiació solar 16.0 W/m²

Dades diàries 2020-05-25



Hora UTC (hivern +1h; estiu +2h)
Temperatura (ºC) Humitat (%) Pressió (hPa) Velocitat vent (km/h) Precipitació (mm) Radiació solar (W/m²)
Hora UTC Aire Humitat Pressió Vel. Dir. Vel. Max Dir. Intent. màx 5 min. Rad. Sol.
00:05 16.4 90.0 1025.2 0.0 SSW 0.0 0.0 0.0
00:10 16.4 90.0 1025.2 0.0 SSW 0.0 0.0 0.0
00:15 16.4 90.0 1025.1 0.0 SSW 0.0 0.0 0.0
00:20 16.4 90.0 1025.0 0.0 SSW 0.0 0.0 0.0
00:25 16.4 90.0 1025.0 0.0 SSW 0.0 0.0 0.0
00:30 16.4 90.0 1025.0 0.0 SSW 0.0 0.0 0.0
00:35 16.4 90.0 1025.0 0.0 SSW 0.0 0.0 0.0
00:40 16.4 90.0 1025.0 0.0 SSW 0.0 0.0 0.0
00:45 16.4 90.0 1025.0 0.0 SSW 0.0 0.0 0.0
00:50 16.4 91.0 1025.0 0.0 SSW 0.0 0.0 0.0
00:55 16.4 91.0 1025.0 0.0 SSW 0.0 0.0 0.0
01:00 16.3 91.0 1024.9 0.0 SSW 0.0 0.0 0.0
01:05 16.3 91.0 1024.9 0.0 SSW 0.0 0.0 0.0
01:10 16.3 91.0 1024.8 0.0 SSW 0.0 0.0 0.0
01:15 16.3 91.0 1024.8 0.0 SSW 0.0 0.0 0.0
01:20 16.4 91.0 1024.7 0.0 SSW 0.0 0.0 0.0
01:25 16.3 91.0 1024.7 0.0 SSW 1.6 0.0 0.0
01:30 16.3 91.0 1024.7 0.0 SSW 1.6 0.0 0.0
01:35 16.3 91.0 1024.6 0.0 SSW 0.0 0.0 0.0
01:40 16.3 91.0 1024.6 0.0 SSW 0.0 0.0 0.0
01:45 16.3 91.0 1024.5 0.0 SSW 0.0 0.0 0.0
01:50 16.3 91.0 1024.5 0.0 SSW 0.0 0.0 0.0
01:55 16.3 91.0 1024.4 0.0 SSW 0.0 0.0 0.0
02:00 16.3 91.0 1024.3 0.0 SSW 0.0 0.0 0.0
02:05 16.3 91.0 1024.2 0.0 SSW 0.0 0.0 0.0
02:10 16.3 91.0 1024.2 0.0 SSW 0.0 0.0 0.0
02:15 16.2 91.0 1024.1 0.0 SSW 1.6 0.0 0.0
02:20 16.2 91.0 1024.2 0.0 SSW 1.6 0.0 0.0
02:25 16.2 92.0 1024.2 0.0 SSW 1.6 0.0 0.0
02:30 16.2 92.0 1024.1 0.0 SSW 0.0 0.0 0.0
02:35 16.2 92.0 1024.1 0.0 SSW 0.0 0.0 0.0
02:40 16.2 92.0 1024.1 0.0 SSW 0.0 0.0 0.0
02:45 16.2 92.0 1024.1 0.0 SSW 0.0 0.0 0.0
02:50 16.1 92.0 1024.2 0.0 SSW 0.0 0.0 0.0
02:55 16.1 92.0 1024.1 0.0 SSW 0.0 0.0 0.0
03:00 16.1 92.0 1024.2 0.0 SSW 0.0 0.0 0.0
03:05 16.1 92.0 1024.2 0.0 SSW 0.0 0.0 0.0
03:10 16.1 92.0 1024.2 0.0 SSW 0.0 0.0 0.0
03:15 16.1 92.0 1024.1 0.0 SSW 0.0 0.0 0.0
03:20 16.0 92.0 1024.2 0.0 SSW 0.0 0.0 0.0
03:25 16.0 92.0 1024.1 0.0 SSW 0.0 0.0 0.0
03:30 16.0 92.0 1024.0 0.0 SSW 0.0 0.0 0.0
03:35 16.0 92.0 1024.1 0.0 SSW 0.0 0.0 0.0
03:40 15.9 92.0 1024.1 0.0 SSW 0.0 0.0 0.0
03:45 15.9 92.0 1024.0 0.0 SSW 0.0 0.0 0.0
03:50 15.9 92.0 1024.0 0.0 SSW 0.0 0.0 0.0
03:55 15.9 92.0 1024.1 0.0 SSW 0.0 0.0 0.0
04:00 15.9 92.0 1024.0 0.0 SSW 1.6 0.0 0.0
04:05 15.9 92.0 1024.1 0.0 SSW 1.6 0.0 0.0
04:10 15.9 92.0 1024.0 0.0 SSW 0.0 0.0 0.0
04:15 15.9 92.0 1024.1 0.0 SSW 0.0 0.0 0.0
04:20 15.9 92.0 1024.1 0.0 SSW 0.0 0.0 0.0
04:25 15.9 92.0 1024.1 0.0 SSW 0.0 0.0 0.0
04:30 15.9 92.0 1024.1 0.0 SSW 1.6 0.0 5.0
04:35 15.9 92.0 1024.2 0.0 SSW 1.6 0.0 7.0
04:40 15.9 92.0 1024.3 0.0 SSW 1.6 0.0 11.0
04:45 15.9 92.0 1024.2 0.0 SSW 0.0 0.0 12.0
04:50 15.9 92.0 1024.3 0.0 SSW 0.0 0.0 14.0
04:55 16.0 92.0 1024.3 0.0 SSW 0.0 0.0 14.0
05:00 16.0 92.0 1024.4 0.0 SSW 0.0 0.0 12.0
05:05 16.1 92.0 1024.4 0.0 SSW 0.0 0.0 18.0
05:10 16.1 93.0 1024.4 0.0 SSW 0.0 0.0 21.0
05:15 16.2 93.0 1024.5 0.0 SSW 0.0 0.0 23.0
05:20 16.2 93.0 1024.5 0.0 SSW 0.0 0.0 19.0
05:25 16.2 92.0 1024.5 0.0 SSW 0.0 0.0 21.0
05:30 16.3 92.0 1024.6 0.0 SSW 0.0 0.0 21.0
05:35 16.3 92.0 1024.6 0.0 SSW 0.0 0.0 28.0
05:40 16.4 92.0 1024.6 0.0 SSW 0.0 0.0 21.0
05:45 16.4 93.0 1024.7 0.0 SSW 0.0 0.0 21.0
05:50 16.5 92.0 1024.8 0.0 SSW 0.0 0.0 30.0
05:55 16.5 91.0 1024.8 0.0 SSW 0.0 0.0 40.0
06:00 16.6 91.0 1024.7 0.0 SSW 0.0 0.0 65.0
06:05 16.7 91.0 1024.8 0.0 SSW 3.2 0.0 86.0
06:10 16.8 90.0 1024.9 0.0 SSE 3.2 0.0 102.0
06:15 16.8 88.0 1024.9 0.0 SSE 3.2 0.0 98.0
06:20 16.9 86.0 1025.0 0.0 SSE 3.2 0.0 93.0
06:25 17.2 85.0 1025.0 1.6 S 4.8 0.0 95.0
06:30 17.2 84.0 1025.0 0.0 SSE 4.8 0.0 90.0
06:35 17.4 83.0 1024.9 0.0 SSE 4.8 0.0 90.0
06:40 17.6 83.0 1024.9 0.0 SSE 3.2 0.0 86.0
06:45 17.7 83.0 1024.9 3.2 SSE 4.8 0.0 91.0
06:50 17.7 81.0 1024.9 0.0 S 4.8 0.0 97.0
06:55 17.8 78.0 1024.9 1.6 S 4.8 0.0 109.0
07:00 17.9 79.0 1024.9 1.6 SW 6.4 0.0 118.0
07:05 17.9 79.0 1024.9 3.2 S 6.4 0.0 104.0
07:10 17.9 77.0 1025.0 0.0 SSW 6.4 0.0 104.0
07:15 18.0 77.0 1025.0 0.0 SE 6.4 0.0 90.0
07:20 18.0 77.0 1025.0 1.6 SSW 4.8 0.0 98.0
07:25 18.1 77.0 1025.0 3.2 SE 4.8 0.0 104.0
07:30 18.1 76.0 1025.0 1.6 SSE 4.8 0.0 130.0
07:35 18.2 76.0 1025.0 0.0 SSE 4.8 0.0 162.0
07:40 18.3 76.0 1025.1 1.6 SSE 3.2 0.0 135.0
07:45 18.4 75.0 1025.1 6.4 SSW 6.4 0.0 116.0
07:50 18.4 76.0 1025.0 0.0 S 6.4 0.0 153.0
07:55 18.4 75.0 1025.0 3.2 SSW 6.4 0.0 209.0
08:00 18.7 78.0 1025.0 0.0 SSW 6.4 0.0 290.0
08:05 18.9 75.0 1024.9 0.0 SSW 6.4 0.0 236.0
08:10 19.1 75.0 1024.9 0.0 SSW 4.8 0.0 253.0
08:15 19.3 73.0 1024.8 0.0 SE 4.8 0.0 334.0
08:20 19.4 71.0 1024.8 1.6 S 4.8 0.0 311.0
08:25 19.5 69.0 1024.8 3.2 S 4.8 0.0 397.0
08:30 19.6 67.0 1024.7 0.0 S 6.4 0.0 462.0
08:35 19.9 65.0 1024.8 0.0 S 6.4 0.0 585.0
08:40 20.3 67.0 1024.8 0.0 S 1.6 0.0 737.0
08:45 20.8 69.0 1024.8 6.4 WNW 6.4 0.0 483.0
08:50 21.0 65.0 1024.8 0.0 WNW 6.4 0.0 515.0
08:55 21.2 66.0 1024.8 0.0 WNW 6.4 0.0 779.0
09:00 21.3 65.0 1024.9 0.0 WSW 1.6 0.0 346.0
09:05 21.5 65.0 1024.9 1.6 SW 4.8 0.0 345.0
09:10 21.6 61.0 1024.9 1.6 SW 4.8 0.0 364.0
09:15 21.6 61.0 1024.9 0.0 SSE 4.8 0.0 362.0
09:20 21.4 63.0 1024.9 0.0 WSW 4.8 0.0 385.0
09:25 21.4 61.0 1025.0 0.0 NW 3.2 0.0 332.0
09:30 21.3 61.0 1025.0 0.0 NW 3.2 0.0 302.0
09:35 21.3 62.0 1025.1 3.2 NW 6.4 0.0 323.0
09:40 21.4 67.0 1025.1 0.0 NW 6.4 0.0 396.0
09:45 21.4 63.0 1025.1 0.0 NW 4.8 0.0 443.0
09:50 21.4 63.0 1025.0 0.0 NW 4.8 0.0 404.0
09:55 21.6 65.0 1025.0 0.0 S 4.8 0.0 396.0
10:00 21.6 63.0 1025.0 0.0 S 4.8 0.0 443.0
10:05 21.8 65.0 1024.9 1.6 WNW 3.2 0.0 406.0
10:10 21.8 64.0 1024.9 1.6 NW 4.8 0.0 374.0
10:15 21.7 63.0 1024.9 0.0 NNW 4.8 0.0 359.0
10:20 21.7 63.0 1024.8 0.0 E 3.2 0.0 385.0
10:25 21.9 63.0 1024.8 0.0 E 3.2 0.0 369.0
10:30 22.0 61.0 1024.8 0.0 N 1.6 0.0 301.0
10:35 22.0 62.0 1024.8 0.0 NNW 4.8 0.0 294.0
10:40 21.9 64.0 1024.8 0.0 NNW 4.8 0.0 244.0
10:45 21.9 64.0 1024.8 0.0 NE 3.2 0.0 241.0
10:50 22.0 63.0 1024.8 0.0 NE 3.2 0.0 260.0
10:55 21.8 64.0 1024.7 0.0 NNE 4.8 0.0 309.0
11:00 21.8 65.0 1024.7 1.6 NNW 4.8 0.0 341.0
11:05 21.7 65.0 1024.7 3.2 NE 6.4 0.0 353.0
11:10 21.8 64.0 1024.6 0.0 NE 6.4 0.0 301.0
11:15 21.8 63.0 1024.6 1.6 N 6.4 0.0 274.0
11:20 21.8 65.0 1024.6 0.0 NNW 3.2 0.0 288.0
11:25 21.9 64.0 1024.6 0.0 NNE 4.8 0.0 285.0
11:30 21.9 65.0 1024.6 1.6 N 4.8 0.0 304.0
11:35 21.8 62.0 1024.6 0.0 N 4.8 0.0 341.0
11:40 21.9 65.0 1024.6 1.6 ENE 4.8 0.0 299.0
11:45 22.1 62.0 1024.7 3.2 N 4.8 0.0 292.0
11:50 21.9 64.0 1024.7 1.6 N 4.8 0.0 327.0
11:55 21.9 63.0 1024.7 0.0 NE 6.4 0.0 301.0
12:00 21.9 63.0 1024.7 0.0 ENE 6.4 0.0 292.0
12:05 22.1 62.0 1024.7 0.0 ESE 3.2 0.0 302.0
12:10 22.1 63.0 1024.7 0.0 ESE 1.6 0.0 327.0
12:15 22.2 63.0 1024.6 0.0 WNW 3.2 0.0 265.0
12:20 22.1 62.0 1024.6 0.0 NNE 3.2 0.0 246.0
12:25 22.1 62.0 1024.6 0.0 NNE 3.2 0.0 258.0
12:30 22.1 62.0 1024.5 0.0 NNE 1.6 0.0 264.0
12:35 22.3 63.0 1024.5 0.0 NNE 0.0 0.0 279.0
12:40 22.4 62.0 1024.4 0.0 NNE 0.0 0.0 327.0
12:45 22.6 60.0 1024.4 0.0 NNE 3.2 0.0 325.0
12:50 22.6 60.0 1024.3 0.0 NNE 3.2 0.0 332.0
12:55 22.7 60.0 1024.2 0.0 NNE 3.2 0.0 401.0
13:00 22.5 60.0 1024.1 0.0 NNE 3.2 0.0 418.0
13:05 22.7 61.0 1024.1 6.4 N 6.4 0.0 513.0
13:10 22.7 60.0 1024.1 0.0 NNW 6.4 0.0 480.0
13:15 22.9 65.0 1024.0 1.6 NNW 6.4 0.0 526.0
13:20 23.1 62.0 1024.0 0.0 NNE 4.8 0.0 482.0
13:25 23.0 59.0 1024.0 0.0 NNW 4.8 0.0 348.0
13:30 22.9 62.0 1024.0 0.0 NW 4.8 0.0 260.0
13:35 22.9 61.0 1023.9 1.6 NW 4.8 0.0 239.0
13:40 22.9 63.0 1023.9 0.0 WNW 1.6 0.0 227.0
13:45 23.1 63.0 1023.9 0.0 WNW 1.6 0.0 246.0
13:50 23.2 60.0 1023.8 0.0 WNW 0.0 0.0 267.0
13:55 23.3 60.0 1023.7 0.0 WNW 1.6 0.0 315.0
14:00 23.5 61.0 1023.7 0.0 WNW 1.6 0.0 380.0
14:05 23.6 59.0 1023.7 1.6 SE 3.2 0.0 415.0
14:10 23.6 60.0 1023.6 0.0 SE 4.8 0.0 271.0
14:15 23.6 59.0 1023.6 0.0 NE 4.8 0.0 267.0
14:20 23.7 62.0 1023.6 0.0 E 1.6 0.0 323.0
14:25 23.7 61.0 1023.6 0.0 SE 1.6 0.0 341.0
14:30 23.7 60.0 1023.5 0.0 SE 1.6 0.0 362.0
14:35 24.1 61.0 1023.3 1.6 S 6.4 0.0 362.0
14:40 24.3 56.0 1023.3 0.0 SW 6.4 0.0 494.0
14:45 24.6 59.0 1023.2 0.0 SSE 6.4 0.0 339.0
14:50 24.8 60.0 1023.2 3.2 S 4.8 0.0 287.0
14:55 24.8 59.0 1023.2 0.0 SE 4.8 0.0 302.0
15:00 24.6 58.0 1023.2 0.0 SSE 8.0 0.0 292.0
15:05 24.0 60.0 1023.2 0.0 S 8.0 0.0 257.0
15:10 23.8 61.0 1023.2 0.0 SSE 3.2 0.0 223.0
15:15 23.7 63.0 1023.1 4.8 SSW 8.0 0.0 410.0
15:20 23.3 62.0 1023.2 6.4 S 8.0 0.0 193.0
15:25 22.9 63.0 1023.3 0.0 ESE 8.0 0.0 214.0
15:30 22.8 62.0 1023.2 0.0 ESE 8.0 0.0 236.0
15:35 22.9 61.0 1023.2 0.0 ESE 1.6 0.0 220.0
15:40 23.0 62.0 1023.2 0.0 ESE 1.6 0.0 211.0
15:45 23.2 60.0 1023.2 0.0 NW 3.2 0.0 272.0
15:50 23.3 57.0 1023.2 0.0 SW 3.2 0.0 257.0
15:55 23.5 60.0 1023.2 3.2 SSW 3.2 0.0 267.0
16:00 23.5 58.0 1023.2 1.6 SSE 4.8 0.0 244.0
16:05 23.4 58.0 1023.1 0.0 S 4.8 0.0 223.0
16:10 23.3 56.0 1023.2 0.0 SSE 4.8 0.0 171.0
16:15 23.3 57.0 1023.2 1.6 SE 4.8 0.0 155.0
16:20 23.5 57.0 1023.1 0.0 SSW 6.4 0.0 86.0
16:25 23.6 56.0 1023.1 1.6 SE 6.4 0.0 77.0
16:30 23.8 57.0 1023.0 0.0 SE 6.4 0.0 90.0
16:35 24.0 54.0 1023.0 0.0 NNE 6.4 0.0 84.0
16:40 24.2 52.0 1022.9 0.0 S 4.8 0.0 70.0
16:45 24.3 54.0 1022.9 1.6 SSW 6.4 0.0 67.0
16:50 24.5 53.0 1022.8 0.0 SSW 6.4 0.0 63.0
16:55 24.5 51.0 1022.8 0.0 WNW 3.2 0.0 63.0
17:00 24.3 52.0 1022.8 11.3 NW 11.3 0.0 67.0
17:05 24.2 55.0 1022.9 0.0 SSE 9.7 0.0 63.0
17:10 24.1 57.0 1022.9 0.0 W 9.7 0.0 69.0
17:15 24.0 54.0 1022.9 1.6 SSW 8.0 0.0 63.0
17:20 23.9 56.0 1022.9 3.2 SSW 8.0 0.0 56.0
17:25 23.7 53.0 1023.0 0.0 SSW 6.4 0.0 56.0
17:30 23.7 51.0 1023.0 0.0 S 6.4 0.0 54.0
17:35 23.6 50.0 1023.0 0.0 NE 6.4 0.0 49.0
17:40 23.6 52.0 1023.0 0.0 SW 6.4 0.0 47.0
17:45 23.4 52.0 1023.1 1.6 WSW 4.8 0.0 44.0
17:50 23.1 52.0 1023.0 4.8 SSW 8.0 0.0 46.0
17:55 22.7 51.0 1023.1 0.0 S 8.0 0.0 42.0
18:00 22.4 52.0 1023.0 0.0 SSW 9.7 0.0 40.0
18:05 22.2 54.0 1023.1 4.8 SE 9.7 0.0 39.0
18:10 21.8 55.0 1023.1 1.6 ESE 6.4 0.0 37.0
18:15 21.6 57.0 1023.2 1.6 S 6.4 0.0 40.0
18:20 21.2 58.0 1023.4 0.0 S 6.4 0.0 21.0
18:25 21.0 57.0 1023.3 0.0 S 6.4 0.0 18.0
18:30 20.7 59.0 1023.4 0.0 S 0.0 0.0 16.0
Màxima 24.9 93.0 1025.2 11.3 NW 11.3 0.0 779.0
Mínima 15.8 50.0 1022.8
Total 0.0